Time,TemperatureF,DewpointF,PressureIn,WindDirection,WindDirectionDegrees,WindSpeedMPH,WindSpeedGustMPH,Humidity,HourlyPrecipIn,Conditions,Clouds,dailyrainin,SolarRadiationWatts/m^2,SoftwareType,DateUTC
2013-08-12 00:02:00,84.0,70.0,29.62,SE,144,0.0,1.0,64,0.00,,,0.00,0.000000,,2013-08-12 05:02:00,
2013-08-12 00:11:00,84.0,70.0,29.94,SE,144,0.0,1.0,64,0.00,,,0.00,0.000000,,2013-08-12 05:11:00,
2013-08-12 00:32:00,83.0,70.0,30.03,SE,144,0.0,0.0,65,0.00,,,0.00,0.000000,,2013-08-12 05:32:00,
2013-08-12 00:43:00,83.0,70.0,30.03,SE,144,0.0,0.0,66,0.00,,,0.00,0.000000,,2013-08-12 05:43:00,
2013-08-12 01:01:00,83.0,71.0,30.02,SE,144,0.0,0.0,67,0.00,,,0.00,0.000000,,2013-08-12 06:01:00,
2013-08-12 01:11:00,83.0,71.0,30.02,SE,144,0.0,0.0,67,0.00,,,0.00,0.000000,,2013-08-12 06:11:00,
2013-08-12 01:32:00,82.0,70.0,28.97,SE,144,0.0,0.0,68,0.00,,,0.00,0.000000,,2013-08-12 06:32:00,
2013-08-12 01:42:00,82.0,71.0,29.23,SE,144,0.0,0.0,69,0.00,,,0.00,0.000000,,2013-08-12 06:42:00,
2013-08-12 02:01:00,81.0,70.0,30.01,SE,144,0.0,0.0,70,0.00,,,0.00,0.000000,,2013-08-12 07:01:00,
2013-08-12 02:12:00,81.0,71.0,28.81,SE,144,0.0,0.0,71,0.00,,,0.00,0.000000,,2013-08-12 07:12:00,
2013-08-12 02:33:00,81.0,71.0,29.18,SE,144,0.0,1.0,71,0.00,,,0.00,0.000000,,2013-08-12 07:33:00,
2013-08-12 02:43:00,81.0,71.0,30.01,SE,144,0.0,0.0,72,0.00,,,0.00,0.000000,,2013-08-12 07:43:00,
2013-08-12 03:02:00,80.0,71.0,30.01,SE,144,0.0,0.0,73,0.00,,,0.00,0.000000,,2013-08-12 08:02:00,
2013-08-12 03:11:00,80.0,71.0,30.01,SE,144,0.0,0.0,73,0.00,,,0.00,0.000000,,2013-08-12 08:11:00,
2013-08-12 03:33:00,80.0,71.0,27.90,SE,144,0.0,0.0,74,0.00,,,0.00,0.000000,,2013-08-12 08:33:00,
2013-08-12 03:43:00,80.0,71.0,27.90,SE,144,0.0,0.0,75,0.00,,,0.00,0.000000,,2013-08-12 08:43:00,
2013-08-12 03:53:00,79.0,70.0,27.90,SE,144,0.0,0.0,75,0.00,,,0.00,0.000000,,2013-08-12 08:53:00,
2013-08-12 04:02:00,79.0,71.0,27.90,SE,144,0.0,0.0,76,0.00,,,0.00,0.000000,,2013-08-12 09:02:00,
2013-08-12 04:11:00,79.0,71.0,27.90,SE,144,0.0,0.0,76,0.00,,,0.00,0.000000,,2013-08-12 09:11:00,
2013-08-12 04:32:00,79.0,71.0,27.39,SE,144,0.0,0.0,77,0.00,,,0.00,0.000000,,2013-08-12 09:32:00,
2013-08-12 04:43:00,78.0,70.0,27.50,SE,144,0.0,0.0,77,0.00,,,0.00,0.000000,,2013-08-12 09:43:00,
2013-08-12 05:01:00,78.0,71.0,27.52,SE,144,0.0,1.0,78,0.00,,,0.00,0.000000,,2013-08-12 10:01:00,
2013-08-12 05:11:00,78.0,71.0,27.52,SE,144,0.0,1.0,78,0.00,,,0.00,0.000000,,2013-08-12 10:11:00,
2013-08-12 05:32:00,77.0,70.0,27.52,SE,144,0.0,0.0,79,0.00,,,0.00,0.000000,,2013-08-12 10:32:00,
2013-08-12 05:43:00,77.0,70.0,27.58,SE,144,0.0,1.0,80,0.00,,,0.00,0.000000,,2013-08-12 10:43:00,
2013-08-12 06:02:00,77.0,70.0,27.60,SE,144,0.0,0.0,80,0.00,,,0.00,0.000000,,2013-08-12 11:02:00,
2013-08-12 06:12:00,77.0,71.0,27.60,SE,144,0.0,0.0,81,0.00,,,0.00,0.000000,,2013-08-12 11:12:00,
2013-08-12 06:32:00,77.0,71.0,29.85,SE,144,0.0,0.0,81,0.00,,,0.00,0.000000,,2013-08-12 11:32:00,
2013-08-12 06:42:00,77.0,71.0,29.86,SE,144,0.0,0.0,81,0.00,,,0.00,0.000000,,2013-08-12 11:42:00,
2013-08-12 07:02:00,76.0,70.0,30.02,SE,144,0.0,0.0,82,0.00,,,0.00,0.000000,,2013-08-12 12:02:00,
2013-08-12 07:11:00,76.0,70.0,30.03,SE,144,0.0,0.0,82,0.00,,,0.00,1.000000,,2013-08-12 12:11:00,
2013-08-12 07:32:00,76.0,70.0,29.98,SE,144,0.0,0.0,83,0.00,,,0.00,2.000000,,2013-08-12 12:32:00,
2013-08-12 07:43:00,76.0,70.0,30.04,SE,144,0.0,0.0,83,0.00,,,0.00,2.000000,,2013-08-12 12:43:00,
2013-08-12 08:01:00,76.0,71.0,29.59,SE,144,0.0,0.0,84,0.00,,,0.00,2.000000,,2013-08-12 13:01:00,
2013-08-12 08:11:00,76.0,71.0,29.59,SE,144,0.0,0.0,84,0.00,,,0.00,3.000000,,2013-08-12 13:11:00,
2013-08-12 08:22:00,76.0,71.0,29.82,SE,144,0.0,2.0,84,0.00,,,0.00,3.000000,,2013-08-12 13:22:00,
2013-08-12 08:32:00,77.0,72.0,30.03,SSE,149,0.0,1.0,84,0.00,,,0.00,3.000000,,2013-08-12 13:32:00,
2013-08-12 08:43:00,77.0,72.0,30.03,SSE,150,0.0,1.0,85,0.00,,,0.00,3.000000,,2013-08-12 13:43:00,
2013-08-12 09:02:00,78.0,73.0,30.03,SSE,148,0.0,1.0,85,0.01,,,0.01,4.000000,,2013-08-12 14:02:00,
2013-08-12 09:11:00,78.0,73.0,29.91,SSE,166,0.0,3.0,84,0.01,,,0.01,4.000000,,2013-08-12 14:11:00,
2013-08-12 09:32:00,79.0,73.0,29.91,SSW,201,0.0,3.0,81,0.01,,,0.01,5.000000,,2013-08-12 14:32:00,
2013-08-12 09:42:00,80.0,73.0,28.85,SW,219,0.0,3.0,79,0.01,,,0.01,10.000000,,2013-08-12 14:42:00,
2013-08-12 10:02:00,82.0,74.0,28.83,WSW,241,0.0,5.0,77,0.00,,,0.01,6.000000,,2013-08-12 15:02:00,
2013-08-12 10:11:00,82.0,73.0,28.83,SSW,206,1.0,3.0,75,0.00,,,0.01,7.000000,,2013-08-12 15:11:00,
2013-08-12 10:33:00,83.0,73.0,29.77,West,269,4.0,10.0,72,0.00,,,0.01,8.000000,,2013-08-12 15:33:00,
2013-08-12 10:43:00,84.0,74.0,29.42,WSW,256,2.0,9.0,71,0.00,,,0.01,9.000000,,2013-08-12 15:43:00,
2013-08-12 10:52:00,84.0,74.0,29.42,WSW,256,2.0,9.0,71,0.00,,,0.01,9.000000,,2013-08-12 15:52:00,
2013-08-12 11:01:00,84.0,74.0,29.42,WSW,256,2.0,9.0,71,0.00,,,0.01,9.000000,,2013-08-12 16:01:00,
2013-08-12 11:11:00,84.0,74.0,29.42,WSW,256,2.0,9.0,71,0.00,,,0.01,9.000000,,2013-08-12 16:11:00,
2013-08-12 11:22:00,84.0,74.0,29.42,WSW,256,2.0,9.0,71,0.00,,,0.01,9.000000,,2013-08-12 16:22:00,
2013-08-12 23:42:00,87.0,68.0,29.46,SW,219,0.0,0.0,54,0.00,,,0.01,,,2013-08-13 04:42:00,
2013-08-12 23:53:00,87.0,69.0,29.95,South,190,0.0,0.0,55,0.00,,,0.01,,,2013-08-13 04:53:00,